Location: Eigen
(51.5193°N, 5.5080°E)
Time: 07:34:32
(UTC+00:00)

Daily predictions for brighter satellites

Satellite Brightness Start Highest point End
(mag) Time Altitude Azimuth Time Altitude Azimuth Time Altitude Azimuth
Cosmos 2279 Rocket 4.4 16:41:26 10° SSW 16:47:40 71° WNW 16:53:55 10° N
USA 281 3.3 16:42:49 10° SSE 16:49:24 88° WSW 16:56:02 10° NNW
Landsat 5 3.4 16:47:40 10° NNE 16:51:33 84° WNW 16:55:30 10° SSW
Meteor 2-14 Rocket 4.5 16:46:40 10° N 16:52:50 69° ENE 16:58:55 10° SSE
Cosmos 2219 3.5 16:48:00 10° NNW 16:53:37 51° NE 16:59:14 10° SE
CZ-2C R/B 4.2 16:50:16 10° ESE 16:54:57 26° ENE 16:59:29 10° N
SMAP 3.1 16:50:36 10° SSE 16:55:16 89° ENE 16:59:58 10° NNW
Cosmos 1943 Rocket 3.9 16:52:49 10° WSW 16:57:35 29° NW 17:02:22 10° NNE
Cosmos 1726 Rocket 4.2 16:54:09 10° SSE 16:58:05 34° E 17:02:05 10° NNE
Cosmos 1758 Rocket 3.6 16:53:56 10° N 16:58:23 89° E 17:02:45 10° S
NOSS 2-1 (E) 4.2 16:55:48 10° WSW 16:59:01 40° NW 17:02:45 10° NE
Meteor 2-21 4.5 16:53:20 10° N 16:59:33 79° ENE 17:05:39 10° SSE
Cosmos 1328 4.0 16:55:59 10° NNW 16:59:57 76° W 17:03:53 10° S
USA 307 3.0 16:55:51 10° WNW 17:00:09 68° N 17:04:25 10° E
Cosmos 1726 4.2 16:59:20 10° SW 17:02:41 31° WNW 17:06:03 10° N
CZ-4B R/B 1.7 17:01:39 10° NNE 17:04:45 40° E 17:07:45 10° S
USA 308 3.0 17:00:42 10° WNW 17:04:59 69° N 17:09:16 10° E
Cosmos 2228 3.1 17:00:58 10° S 17:05:04 51° E 17:09:16 10° NNE
YAOGAN 6 3.5 17:01:57 10° S 17:05:33 55° W 17:09:12 10° NNW
Cosmos 1939 Rocket 3.3 17:02:32 10° SE 17:06:14 39° ENE 17:09:54 10° N
ATLAS 5 CENTAUR R/B 3.1 17:03:48 10° W 17:07:43 32° NNW 17:12:13 10° NE
Cosmos 1452 Rocket 4.0 17:05:36 10° SW 17:10:50 65° WNW 17:16:08 10° NNE
Helios 1A Rocket 3.5 17:09:42 10° SE 17:13:27 35° ENE 17:17:13 10° N
Cosmos 1606 Rocket 3.6 17:09:19 10° S 17:13:37 60° E 17:17:59 10° NNE
FALCON 9 DEB 4.3 17:13:06 10° SSW 17:15:50 26° SE 17:17:56 14° E
GENESIS II 4.4 17:12:06 10° SSW 17:16:04 56° SE 17:20:02 10° NE
CZ-4B R/B 4.0 17:11:56 10° S 17:17:27 58° WSW 17:22:54 10° NNW
ARGOS 4.3 17:14:21 10° ESE 17:18:29 23° NE 17:22:37 10° N
SKYMED 2 4.2 17:14:50 10° NNE 17:18:50 34° E 17:22:49 10° SSE
Okean-O 3.1 17:15:50 10° SE 17:19:56 38° ENE 17:24:03 10° N
Cosmos 1689 Rocket 3.1 17:17:41 10° NE 17:20:07 24° E 17:22:33 10° SSE
Cosmos 1656 4.4 17:17:42 10° SSE 17:22:30 31° ESE 17:27:23 10° NE
Cosmos 1745 Rocket 4.4 17:17:38 10° N 17:23:30 39° ENE 17:29:22 10° SE
Cosmos 1400 Rocket 3.3 17:21:32 10° SSE 17:25:21 38° E 17:29:09 10° NNE
Cosmos 1908 4.5 17:23:39 10° SSW 17:27:20 44° WNW 17:31:05 10° N
Cosmos 2227 Rocket 2.2 17:21:59 10° NNW 17:27:40 67° ENE 17:33:17 10° SE
H-2A R/B 2.9 17:23:08 10° ESE 17:27:53 32° ENE 17:32:41 10° N
Cosmos 2058 3.7 17:24:45 10° N 17:28:24 30° ENE 17:32:02 10° SE
Meteor 2-16 Rocket 4.4 17:22:27 10° N 17:28:35 84° E 17:34:41 10° S
GEOS 3 Rocket 3.9 17:24:37 10° ESE 17:29:47 52° NE 17:35:02 10° NW
Cosmos 1892 3.2 17:26:09 10° N 17:29:50 39° ENE 17:33:29 10° SE
CZ-4 R/B 1.7 17:26:34 10° SE 17:30:12 39° ENE 17:33:49 10° N
Cosmos 2263 Rocket 3.5 17:28:30 10° NNW 17:32:52 22° NE 17:35:33 16° ENE
Cosmos 1408 3.4 17:30:46 10° N 17:34:00 28° ENE 17:37:13 10° SE
BREEZE-M DEB (TANK) 4.2 17:30:58 10° WSW 17:34:49 89° N 17:46:14 16° E
BREEZE-M R/B 4.0 17:25:24 10° W 17:35:07 68° S 17:37:09 20° ESE
CSL-04 Rocket 4.2 17:31:08 10° SE 17:36:10 38° ENE 17:41:13 10° N
Cosmos 1244 Rocket 4.4 17:29:57 10° N 17:36:10 81° E 17:42:26 10° SSE
NOSS 3-4 (A) 4.2 17:32:46 10° NW 17:39:05 43° NNE 17:44:11 18° E
NOSS 3-4 (C) 4.2 17:32:52 10° NW 17:39:10 43° NNE 17:44:16 18° E
CZ-4C R/B 3.7 17:33:52 10° NW 17:39:31 32° NNE 17:44:24 16° ENE
Cosmos 1953 Rocket 4.0 17:36:18 10° NNW 17:40:42 68° W 17:45:06 10° S
Cosmos 1300 2.7 17:39:52 10° SSW 17:43:41 83° W 17:47:32 10° N
Cosmos 2058 Rocket 3.0 17:42:33 10° S 17:47:00 67° E 17:51:30 10° NNE
Cosmos 1697 Rocket 3.6 17:42:33 10° SSE 17:47:08 26° ESE 17:49:38 19° ENE
SL-4 R/B 1.6 17:43:36 10° W 17:47:10 88° N 17:49:04 27° E
Cosmos 1331 Rocket 4.1 17:42:32 10° SSW 17:47:42 76° WNW 17:52:53 10° NNE
Cosmos 1346 Rocket 3.0 17:44:52 10° N 17:48:46 48° ENE 17:52:38 10° SSE
IRS-1C Rocket 4.2 17:43:45 10° SSE 17:49:01 81° WSW 17:54:20 10° NNW
CZ-2D R/B 3.1 17:45:19 10° SSE 17:49:07 80° ENE 17:52:56 10° NNW
SeaSat 1 3.0 17:46:27 20° ESE 17:49:23 38° NE 17:53:58 10° NNW
USA 305 2.9 17:46:34 10° WNW 17:50:54 87° SSW 17:53:26 24° ESE
Cosmos 1825 2.9 17:47:36 10° N 17:50:59 30° ENE 17:51:38 28° E
Cosmos 1709 Rocket 4.5 17:47:21 10° N 17:53:16 38° ENE 17:59:10 10° SE
Cosmos 44 3.1 17:50:38 10° SW 17:55:11 85° SE 17:59:04 16° NE
USA 215 3.5 17:51:39 20° E 17:56:11 60° N 18:02:36 10° WNW
Cosmos 1315 Rocket 3.6 17:53:06 10° SSE 17:56:19 29° E 17:56:19 29° E
USA 306 2.9 17:52:59 10° WNW 17:57:18 83° SSW 17:59:35 27° ESE
SAR-Lupe-4 3.7 17:54:39 10° NNE 17:58:15 75° WNW 18:01:50 10° SSW
ERS-2 3.4 17:54:49 10° N 17:58:18 43° WNW 18:01:46 10° SW
SJ-11-01 4.4 17:54:29 10° SE 17:58:58 49° ENE 18:03:29 10° N
BREEZE-M R/B 3.6 17:57:17 10° W 18:01:04 73° S 18:05:18 24° ESE
ATLAS 2AS CENTAUR R/B 3.3 17:53:50 10° NW 18:01:15 46° NNE 18:05:16 25° E
Cosmos 968 Rocket 3.5 17:57:49 10° NNW 18:03:05 86° WSW 18:08:16 10° SSE
Cosmos 1340 3.2 17:59:56 10° NNW 18:03:40 59° W 18:07:23 10° S
SJ 16-02 3.7 18:03:52 10° NNE 18:04:08 10° NNE 18:04:08 10° NNE
COSMO-SKYMED 1 2.6 18:02:40 10° NNE 18:07:03 84° WNW 18:11:24 10° SSW
HJ-1C 3.8 18:07:27 42° NE 18:07:27 42° NE 18:10:24 10° N
Cosmos 2297 Rocket 2.8 18:01:55 10° NW 18:07:30 59° WSW 18:13:03 10° SSE
MOS 1 Rocket 3.7 18:03:21 10° NNE 18:07:44 39° E 18:12:19 10° SSE
Cosmos 2369 Rocket 4.4 18:04:46 10° WNW 18:08:47 19° NNW 18:12:49 10° NNE
Cosmos 1076 Rocket 3.5 18:04:36 10° N 18:08:47 54° ENE 18:11:35 20° SSE
In-Cosmos 22 Rocket 4.4 18:04:27 10° NNW 18:09:48 70° W 18:15:12 10° S
Cosmos 1980 Rocket 3.8 18:05:41 10° SSE 18:07:19 16° SE 18:07:19 16° SE
Aureole 3 Rocket 3.5 18:08:28 10° SSW 18:12:36 77° WNW 18:18:27 10° N
Cosmos 2315 Rocket 4.4 18:10:42 10° SSE 18:16:14 36° E 18:21:47 10° NNE
CSL-04 Debris 4.1 18:11:04 10° SSE 18:16:30 75° ENE 18:21:59 10° NNW
S3M 3.9 18:10:34 10° S 18:16:36 65° E 18:22:43 10° NNE
Cosmos 1302 Rocket 4.1 18:13:25 10° SSW 18:18:41 79° WNW 18:24:01 10° NNE
SL-08 ROCKET BODY 4.5 18:13:19 10° NNW 18:19:27 83° W 18:25:37 10° S
Lacrosse 5 2.5 18:16:53 10° WNW 18:21:46 45° N 18:23:30 33° NE
FALCON 9 DEB 2.9 18:18:31 10° WNW 18:21:58 85° NNE 18:22:07 80° ENE
FALCON 9 DEB 3.1 18:20:34 10° WSW 18:23:30 62° SSW 18:23:30 62° SSW
ERBS 3.4 18:20:59 10° WNW 18:24:02 32° N 18:24:02 32° N
YAOGAN 1 2.8 18:19:54 10° S 18:24:13 70° WSW 18:28:34 10° NNW
Aureole 3 4.1 18:23:24 10° SW 18:26:17 38° WNW 18:29:08 10° N
Cosmos 1417 Rocket 4.5 18:21:25 10° S 18:27:41 89° W 18:34:05 10° N
FALCON 9 DEB 3.3 18:24:46 10° WSW 18:27:30 59° SW 18:27:30 59° SW
Cosmos 1812 Rocket 3.8 18:27:06 10° S 18:35:45 10° NNE 18:30:37 48° SE
Cosmos 1455 2.6 18:28:23 10° S 18:31:13 48° SSE 18:31:13 48° SSE
Cosmos 1503 Rocket 4.0 18:28:10 10° NNW 18:33:25 81° WSW 18:37:11 19° SSE
CZ-2C R/B 3.6 18:28:37 10° S 18:34:23 68° WSW 18:40:00 10° NNW
Meteor 2-3 Rocket 4.2 18:29:19 10° N 18:34:42 40° ENE 18:34:44 40° ENE
CZ-4B R/B 4.4 18:34:38 10° NNW 18:36:44 16° WNW 18:38:47 10° WSW
DMSP B5D1-3 4.4 18:33:04 10° NNE 18:38:15 74° ESE 18:43:24 10° S
FALCON 9 DEB 3.9 18:36:48 10° WSW 18:39:09 45° WSW 18:39:09 45° WSW
USA 307 3.3 18:36:00 10° WNW 18:40:11 53° SSW 18:40:52 47° S
Cosmos 1354 Rocket 4.1 18:39:42 10° NNW 18:44:58 75° WSW 18:47:53 27° SSE
USA 308 3.4 18:40:51 10° WNW 18:45:00 50° SSW 18:45:31 47° S
Meteor 2-10 Rocket 3.5 18:40:21 10° SSW 18:45:39 79° WNW 18:50:48 10° N
Cosmos 1553 Rocket 4.5 18:39:58 10° SSW 18:46:15 63° WNW 18:52:29 10° N
Cosmos 2082 4.1 18:40:55 10° NW 18:46:36 63° WSW 18:50:45 19° S
Cosmos 2278 Rocket 4.4 18:50:43 10° N 18:52:30 11° NNE 18:53:39 11° NNE
ATLAS 5 CENTAUR R/B 3.7 18:50:06 10° NW 18:53:48 22° N 18:55:01 20° NNE
Meteor 2-15 Rocket 4.5 18:47:54 10° SSW 18:54:04 81° W 19:00:16 10° N
Cosmos 2151 3.8 18:53:12 10° N 18:56:04 42° N 18:56:04 42° N
Cosmos 1992 Rocket 3.9 18:52:27 10° SSW 18:57:40 86° WNW 18:59:49 37° NNE
ARGOS 3.2 18:54:41 22° S 18:58:13 76° WSW 19:03:42 10° NNW
SL-08 RB Rocket 3.8 19:00:38 66° N 19:00:38 66° N 19:04:33 10° NNW
Cosmos 2369 3.5 18:56:55 10° SSW 19:02:37 77° ESE 19:03:10 70° ENE
CZ-4 R/B 3.7 19:02:19 10° SW 19:05:23 22° W 19:08:27 10° NW
Cosmos 1656 4.2 19:00:23 10° SW 19:05:53 56° NW 19:10:04 18° NNE
Cosmos 1844 Rocket 4.2 19:01:42 10° NNW 19:05:18 23° NNE 19:05:18 23° NNE
Ariane Rocket 3.1 19:07:50 62° NNE 19:07:50 62° NNE 19:12:13 10° NNW
H-2A R/B 2.9 19:01:50 10° S 19:07:07 51° W 19:12:27 10° NNW
Geosat 3.9 19:06:43 71° NNE 19:07:17 85° WNW 19:12:19 10° SW
GEOS 3 Rocket 4.5 19:05:41 31° S 19:07:51 47° SW 19:13:05 10° NW
Cosmos 2227 Rocket 4.2 19:06:42 10° NW 19:11:15 25° WSW 19:15:49 10° SSW
Cosmos 2263 Rocket 2.2 19:12:02 10° NNW 19:17:16 70° NNE 19:17:16 70° NNE
Cosmos 1825 4.3 19:23:14 10° NNW 19:26:25 26° W 19:26:28 26° W
SL-4 R/B 4.1 19:23:05 10° W 19:24:38 23° W 19:24:38 23° W
SeaSat 1 3.3 19:26:15 43° SW 19:26:51 45° WSW 19:31:37 10° NW
CZ-4C R/B 2.9 19:22:36 10° NW 19:29:20 62° NE 19:29:36 61° NE
NOSS 3-4 (A) 3.8 19:23:40 10° NW 19:30:34 77° SW 19:31:39 65° S
NOSS 3-4 (C) 3.8 19:23:47 10° NW 19:30:40 78° SW 19:31:43 66° S
Cosmos 1697 Rocket 3.0 19:25:07 10° SW 19:30:42 64° NW 19:31:25 58° NNW
Cosmos 2184 Rocket 4.3 19:26:04 10° N 19:31:04 56° NNE 19:31:04 56° NNE
DEBRIS 4.3 19:23:58 10° WSW 19:36:49 64° SSW 19:36:49 64° SSW
USA 215 3.1 19:39:00 83° SSW 19:39:04 84° SSW 19:45:40 10° WNW
NOSS 3-3 (A) 4.0 19:35:58 10° SW 19:41:47 75° WNW 19:41:47 75° WNW
NOSS 3-3 (C) 4.0 19:36:04 10° SW 19:41:53 75° WNW 19:41:53 75° WNW
SJ 16-02 3.8 19:40:16 10° NNW 19:41:07 15° NNW 19:41:07 15° NNW
Cosmos 2074 Rocket 4.4 19:46:19 10° N 19:51:03 55° NNW 19:51:03 55° NNW
ATLAS 2AS CENTAUR R/B 2.8 19:45:13 10° NW 19:52:43 73° SW 19:52:43 73° SW
Cosmos 1980 Rocket 4.1 19:47:42 10° SW 19:49:11 19° SW 19:49:11 19° SW
COSMOS 2455 4.3 19:51:27 10° NNW 19:55:08 28° N 19:55:08 28° N
Resurs 01 Rocket 4.4 20:02:02 11° NNW 20:02:02 11° NNW 20:02:16 10° NNW
Lacrosse 5 3.6 20:00:09 10° WNW 20:02:41 30° NW 20:02:41 30° NW
ATLAS 5 CENTAUR R/B 4.4 20:35:13 10° NW 20:36:31 17° NNW 20:36:31 17° NNW
CZ-4C R/B 4.3 21:11:11 10° NW 21:14:47 31° WNW 21:14:47 31° WNW
